Holdrege, NE

3:12 PM CDT on September 19, 2017 (GMT -0500)
Brewster

Weather History for KHDE - September, 2012

Change the Weather History Date:

Wednesday, September 5, 2012

  Actual Average Record
Temperature  
Mean Temperature 71 °F -  
Max Temperature 84 °F 84 °F 99 °F (1976)
Min Temperature 54 °F 56 °F 41 °F (1962)
Cooling Degree Days 6    
Growing Degree Days 21 (Base 50)    
Moisture  
Dew Point 49 °F    
Average Humidity 51    
Maximum Humidity 89    
Minimum Humidity 21    
Precipitation  
Precipitation 0.03 in - - ()
Sea Level Pressure  
Sea Level Pressure 29.96 in    
Wind  
Wind Speed 10 mph (NNE)    
Max Wind Speed 20 mph    
Max Gust Speed 28 mph    
Visibility 10 miles    
Events Thunderstorm    
Averages and records for this station are not official NWS values.
T = Trace of Precipitation, MM = Missing Value Source: NWS Daily Summary

Daily Weather History Graph

Daily Weather History Graph

Search for Another Location

Airport or City:

Trip Planner

Search our weather history database for the weather conditions in past years. The results will help you decide how hot, cold, wet, or windy it might be!

Date:

Astronomy

Sep. 05, 2012 Rise Set
Actual Time 7:09 AM CDT 8:01 PM CDT
Civil Twilight 6:41 AM CDT 8:29 PM CDT
Nautical Twilight 6:08 AM CDT 9:02 PM CDT
Astronomical Twilight 5:34 AM CDT 9:36 PM CDT
Moon 10:31 PM CDT (9/5) 12:15 PM CDT (9/5)
Length of Visible Light 13h 48m
Length of Day
12h 52m
Waning Gibbous, 76% of the Moon is Illuminated
Sep 5
Waning Gibbous
Sep 8
Last Quarter
Sep 15
New
Sep 22
First Quarter
Sep 29
Full

Hourly Weather History & Observations

Time (CDT) Temp. Dew Point Humidity Pressure Visibility Wind Dir Wind Speed Gust Speed Precip Events Conditions
12:15 AM 67.6 °F 58.3 °F 72% 29.84 in 10.0 mi South 8.1 mph - N/A   Clear
12:35 AM 67.6 °F 59.0 °F 74% 29.84 in 10.0 mi SSW 9.2 mph - N/A   Clear
12:55 AM 66.7 °F 59.0 °F 76% 29.84 in 10.0 mi SW 9.2 mph - N/A   Clear
1:15 AM 66.2 °F 59.9 °F 80% 29.85 in 10.0 mi SW 8.1 mph - N/A   Clear
1:35 AM 66.2 °F 59.9 °F 80% 29.85 in 10.0 mi SW 8.1 mph - N/A   Clear
1:55 AM 65.5 °F 59.2 °F 80% 29.85 in 10.0 mi SW 8.1 mph - N/A   Clear
2:15 AM 66.4 °F 59.9 °F 80% 29.85 in 10.0 mi SW 9.2 mph - N/A   Clear
2:35 AM 66.7 °F 59.9 °F 79% 29.85 in 10.0 mi SW 8.1 mph - N/A   Clear
2:55 AM 67.1 °F 59.5 °F 77% 29.86 in 10.0 mi WSW 9.2 mph - N/A   Clear
3:15 AM 66.6 °F 59.2 °F 77% 29.87 in 10.0 mi NW 8.1 mph - N/A   Clear
3:35 AM 63.7 °F 59.0 °F 85% 29.87 in 10.0 mi WNW 4.6 mph - N/A   Clear
3:55 AM 61.5 °F 58.1 °F 89% 29.88 in 10.0 mi NNW 3.5 mph - N/A   Clear
4:15 AM 61.3 °F 58.1 °F 89% 29.88 in 10.0 mi NW 4.6 mph - N/A   Clear
4:35 AM 62.2 °F 58.5 °F 87% 29.88 in 10.0 mi NW 5.8 mph - N/A   Clear
4:55 AM 61.7 °F 58.5 °F 89% 29.88 in 10.0 mi NW 5.8 mph - N/A   Clear
5:15 AM 62.2 °F 57.4 °F 84% 29.89 in 10.0 mi NNW 8.1 mph - N/A   Clear
5:35 AM 61.7 °F 54.5 °F 77% 29.90 in 10.0 mi NW 6.9 mph - N/A   Clear
5:55 AM 62.8 °F 48.2 °F 59% 29.90 in 10.0 mi North 9.2 mph 17.3 mph N/A   Clear
6:15 AM 61.0 °F 46.4 °F 59% 29.91 in 10.0 mi North 10.4 mph - N/A   Clear
6:35 AM 60.4 °F 45.0 °F 57% 29.91 in 10.0 mi NNW 9.2 mph - N/A   Clear
6:55 AM 61.2 °F 44.6 °F 54% 29.93 in 10.0 mi NNW 10.4 mph - N/A   Clear
7:15 AM 61.3 °F 44.8 °F 55% 29.93 in 10.0 mi NNW 11.5 mph - N/A   Clear
7:35 AM 62.6 °F 45.5 °F 54% 29.94 in 10.0 mi North 15.0 mph 20.7 mph N/A   Clear
7:55 AM 62.6 °F 45.9 °F 54% 29.95 in 10.0 mi North 12.7 mph 19.6 mph N/A   Clear
8:15 AM 62.8 °F 46.4 °F 55% 29.96 in 10.0 mi North 15.0 mph 20.7 mph N/A   Clear
8:35 AM 63.9 °F 47.5 °F 55% 29.97 in 7.0 mi North 13.8 mph 18.4 mph N/A   Clear
8:55 AM 65.1 °F 48.6 °F 55% 29.97 in 7.0 mi North 15.0 mph 20.7 mph N/A   Clear
9:15 AM 66.6 °F 48.6 °F 52% 29.98 in 10.0 mi North 17.3 mph 24.2 mph N/A   Clear
9:35 AM 68.0 °F 48.4 °F 49% 29.99 in 10.0 mi North 18.4 mph 24.2 mph N/A   Clear
9:55 AM 69.1 °F 48.0 °F 47% 30.00 in 10.0 mi North 16.1 mph 23.0 mph N/A   Clear
10:15 AM 70.7 °F 47.5 °F 44% 30.00 in 10.0 mi North 18.4 mph 24.2 mph N/A   Clear
10:35 AM 75.6 °F 46.6 °F 36% 30.01 in 10.0 mi North 17.3 mph 26.5 mph N/A   Clear
10:55 AM 73.2 °F 48.0 °F 41% 30.01 in 10.0 mi North 19.6 mph 26.5 mph 0.03 in   Clear
11:15 AM 74.3 °F 46.9 °F 38% 30.02 in - North 18.4 mph 25.3 mph N/A   Clear
11:35 AM 75.4 °F 47.1 °F 37% 30.02 in 10.0 mi North 17.3 mph 24.2 mph N/A   Clear
11:55 AM 77.2 °F 46.9 °F 34% 30.02 in 10.0 mi North 16.1 mph 21.9 mph N/A   Clear
12:15 PM 78.4 °F 46.4 °F 32% 30.02 in 10.0 mi North 18.4 mph 27.6 mph N/A Thunderstorm Thunderstorm
12:35 PM 79.7 °F 46.0 °F 30% 30.02 in 10.0 mi North 17.3 mph 23.0 mph N/A   Clear
12:55 PM 81.0 °F 45.3 °F 28% 30.02 in 10.0 mi North 15.0 mph 23.0 mph N/A   Clear
1:15 PM 81.1 °F 45.0 °F 28% 30.02 in 10.0 mi NNE 17.3 mph 20.7 mph N/A   Clear
1:35 PM 81.9 °F 44.1 °F 26% 30.02 in 10.0 mi NNE 15.0 mph - N/A   Clear
1:55 PM 82.6 °F 44.2 °F 26% 30.01 in 10.0 mi NNE 19.6 mph - N/A   Clear
2:15 PM 82.6 °F 42.6 °F 24% 30.01 in 10.0 mi NNE 17.3 mph - N/A   Clear
2:35 PM 82.9 °F 43.5 °F 25% 30.01 in 10.0 mi NNE 13.8 mph 19.6 mph N/A   Clear
2:55 PM 82.8 °F 42.4 °F 24% 30.01 in 10.0 mi North 11.5 mph 16.1 mph N/A   Clear
3:15 PM 83.3 °F 43.0 °F 24% 30.00 in 10.0 mi NE 13.8 mph 18.4 mph N/A   Clear
3:35 PM 83.5 °F 42.6 °F 24% 30.00 in 10.0 mi NNE 11.5 mph 17.3 mph N/A   Clear
3:55 PM 83.8 °F 43.7 °F 24% 30.00 in 10.0 mi ENE 10.4 mph 17.3 mph N/A   Clear
4:15 PM 83.8 °F 41.9 °F 23% 30.00 in 10.0 mi NNE 11.5 mph 17.3 mph N/A   Clear
4:35 PM 83.8 °F 41.5 °F 22% 30.00 in 10.0 mi NE 6.9 mph - N/A   Clear
5:15 PM 83.3 °F 41.7 °F 23% 29.99 in 10.0 mi NE 9.2 mph - N/A   Clear
5:35 PM 83.3 °F 39.9 °F 21% 29.99 in 10.0 mi ENE 8.1 mph - N/A   Clear
5:55 PM 82.8 °F 41.0 °F 23% 29.99 in 10.0 mi ENE 8.1 mph - N/A   Clear
6:15 PM 82.4 °F 42.1 °F 24% 29.99 in 10.0 mi ENE 6.9 mph - N/A   Clear
6:35 PM 81.3 °F 43.2 °F 26% 29.99 in 10.0 mi ENE 4.6 mph - N/A   Clear
6:55 PM 79.9 °F 44.6 °F 29% 29.99 in 10.0 mi NE 5.8 mph - N/A   Clear
7:15 PM 77.7 °F 46.9 °F 34% 29.99 in 10.0 mi ENE 5.8 mph - N/A   Clear
7:35 PM 75.4 °F 49.1 °F 39% 29.98 in 10.0 mi ENE 5.8 mph - N/A   Clear
7:55 PM 72.9 °F 49.5 °F 44% 29.98 in 10.0 mi ENE 5.8 mph - N/A   Clear
8:15 PM 69.6 °F 49.1 °F 48% 29.99 in 10.0 mi ENE 6.9 mph - N/A   Clear
8:35 PM 68.0 °F 49.8 °F 52% 29.99 in 10.0 mi ENE 6.9 mph - N/A   Clear
8:55 PM 64.8 °F 50.9 °F 61% 29.99 in 10.0 mi ENE 6.9 mph - N/A   Clear
9:15 PM 63.7 °F 49.6 °F 60% 30.00 in 10.0 mi ENE 8.1 mph - N/A   Clear
9:35 PM 63.5 °F 48.9 °F 59% 30.00 in 10.0 mi ENE 6.9 mph - N/A   Clear
9:55 PM 64.9 °F 46.6 °F 51% 30.00 in 10.0 mi East 8.1 mph - N/A   Clear
10:15 PM 65.1 °F 45.5 °F 49% 30.00 in 10.0 mi East 6.9 mph - N/A   Clear
10:35 PM 64.4 °F 46.2 °F 52% 30.00 in 10.0 mi East 6.9 mph - N/A   Clear
10:55 PM 63.7 °F 46.6 °F 54% 30.01 in 10.0 mi East 6.9 mph - N/A   Clear
11:15 PM 61.0 °F 45.7 °F 57% 30.01 in 10.0 mi East 6.9 mph - N/A   Clear
11:35 PM 59.5 °F 46.4 °F 62% 30.01 in 10.0 mi ESE 6.9 mph - N/A   Clear
11:55 PM 54.1 °F 45.5 °F 73% 30.01 in 10.0 mi ESE 8.1 mph - N/A   Clear